TimeMDT,TemperatureF,Dew PointF,Humidity,Sea Level PressureIn,VisibilityMPH,Wind Direction,Wind SpeedMPH,Gust SpeedMPH,PrecipitationIn,Events,Conditions,WindDirDegrees,DateUTC
12:28 AM,46.4,42.8,87,30.06,10.0,West,10.4,-,N/A,,Light Drizzle,280,2013-04-20 06:28:00
12:38 AM,44.6,42.8,93,30.07,10.0,West,10.4,-,N/A,,Scattered Clouds,280,2013-04-20 06:38:00
12:58 AM,44.1,41.9,92,30.07,10.0,West,10.4,-,0.00,,Clear,280,2013-04-20 06:58:00
1:18 AM,44.6,42.8,93,30.08,10.0,WNW,10.4,-,N/A,,Mostly Cloudy,290,2013-04-20 07:18:00
1:43 AM,46.4,42.8,87,30.08,10.0,WNW,13.8,-,N/A,Rain,Light Rain,300,2013-04-20 07:43:00
1:48 AM,46.4,42.8,87,30.08,10.0,WNW,16.1,-,N/A,,Overcast,300,2013-04-20 07:48:00
1:58 AM,45.9,41.9,86,30.08,10.0,NW,17.3,-,0.01,,Overcast,310,2013-04-20 07:58:00
2:33 AM,46.4,41.0,81,30.08,10.0,NW,12.7,-,N/A,,Overcast,310,2013-04-20 08:33:00
2:48 AM,46.4,42.8,87,30.08,10.0,NW,13.8,-,N/A,,Overcast,310,2013-04-20 08:48:00
2:53 AM,46.4,42.8,87,30.08,10.0,NW,13.8,-,N/A,,Overcast,310,2013-04-20 08:53:00
2:58 AM,45.9,41.9,86,30.08,10.0,NW,12.7,-,N/A,,Overcast,320,2013-04-20 08:58:00
3:18 AM,46.4,41.0,81,30.08,10.0,NNW,13.8,-,N/A,,Overcast,330,2013-04-20 09:18:00
3:58 AM,46.2,41.0,82,30.09,10.0,NW,12.7,-,N/A,,Overcast,320,2013-04-20 09:58:00
4:58 AM,45.3,40.3,83,30.11,10.0,NNW,9.2,-,N/A,,Overcast,330,2013-04-20 10:58:00
5:23 AM,44.6,41.0,87,30.11,10.0,NW,8.1,-,N/A,,Overcast,310,2013-04-20 11:23:00
5:58 AM,43.3,39.7,87,30.14,10.0,West,9.2,-,N/A,,Overcast,270,2013-04-20 11:58:00
6:03 AM,42.8,39.2,87,30.12,10.0,West,9.2,-,N/A,,Overcast,270,2013-04-20 12:03:00
6:58 AM,43.2,37.9,82,30.13,10.0,NW,12.7,-,N/A,,Mostly Cloudy,310,2013-04-20 12:58:00
7:03 AM,42.8,37.4,81,30.13,10.0,WNW,10.4,-,N/A,,Mostly Cloudy,300,2013-04-20 13:03:00
7:18 AM,42.8,37.4,81,30.13,10.0,WNW,10.4,-,N/A,,Mostly Cloudy,300,2013-04-20 13:18:00
7:48 AM,42.8,37.4,81,30.15,10.0,WNW,10.4,-,N/A,,Overcast,290,2013-04-20 13:48:00
7:58 AM,43.5,36.7,77,30.17,10.0,WNW,11.5,-,N/A,,Overcast,300,2013-04-20 13:58:00
8:03 AM,42.8,35.6,76,30.15,10.0,WNW,11.5,-,N/A,,Overcast,290,2013-04-20 14:03:00
8:38 AM,44.6,35.6,71,30.17,10.0,WNW,8.1,-,N/A,,Overcast,290,2013-04-20 14:38:00
8:58 AM,45.9,37.0,71,30.19,10.0,West,9.2,-,N/A,,Overcast,270,2013-04-20 14:58:00
9:58 AM,49.5,35.4,58,30.19,10.0,WNW,20.7,-,N/A,,Mostly Cloudy,290,2013-04-20 15:58:00
10:58 AM,52.2,34.3,51,30.18,10.0,NW,20.7,28.8,N/A,,Mostly Cloudy,310,2013-04-20 16:58:00
11:03 AM,51.8,33.8,50,30.18,10.0,NW,20.7,28.8,N/A,,Scattered Clouds,310,2013-04-20 17:03:00
11:18 AM,51.8,32.0,47,30.18,10.0,WNW,19.6,26.5,N/A,,Mostly Cloudy,300,2013-04-20 17:18:00
11:58 AM,53.1,32.9,46,30.18,10.0,NW,20.7,-,N/A,,Overcast,320,2013-04-20 17:58:00
12:38 PM,53.6,32.0,44,30.17,10.0,NW,17.3,-,N/A,,Overcast,310,2013-04-20 18:38:00
12:58 PM,55.6,31.6,40,30.16,10.0,NW,23.0,-,N/A,,Mostly Cloudy,320,2013-04-20 18:58:00
1:03 PM,55.4,32.0,41,30.17,10.0,NW,19.6,-,N/A,,Mostly Cloudy,310,2013-04-20 19:03:00
1:08 PM,55.4,32.0,41,30.16,10.0,NW,20.7,-,N/A,,Mostly Cloudy,310,2013-04-20 19:08:00
1:33 PM,57.2,32.0,38,30.16,10.0,NW,19.6,31.1,N/A,,Scattered Clouds,320,2013-04-20 19:33:00
1:58 PM,57.0,30.4,36,30.15,10.0,NW,16.1,23.0,N/A,,Scattered Clouds,320,2013-04-20 19:58:00
2:03 PM,57.2,30.2,36,30.15,10.0,NW,18.4,23.0,N/A,,Mostly Cloudy,310,2013-04-20 20:03:00
2:23 PM,57.2,30.2,36,30.14,10.0,NW,17.3,26.5,N/A,,Scattered Clouds,320,2013-04-20 20:23:00
2:58 PM,59.0,30.0,33,30.12,10.0,NW,17.3,25.3,N/A,,Clear,310,2013-04-20 20:58:00
3:58 PM,60.1,29.3,31,30.10,10.0,NW,16.1,-,N/A,,Clear,310,2013-04-20 21:58:00
4:04 PM,60.8,28.4,29,30.11,10.0,WNW,17.3,27.6,N/A,,Clear,290,2013-04-20 22:04:00
4:58 PM,62.1,29.5,29,30.08,10.0,NW,20.7,26.5,N/A,,Partly Cloudy,320,2013-04-20 22:58:00
5:58 PM,62.1,29.3,29,30.08,10.0,WNW,16.1,26.5,N/A,,Clear,300,2013-04-20 23:58:00
6:10 PM,62.6,28.4,27,30.08,10.0,North,17.3,24.2,N/A,,Clear,350,2013-04-21 00:10:00
6:58 PM,60.8,28.9,30,30.08,10.0,North,15.0,-,N/A,,Clear,350,2013-04-21 00:58:00
7:58 PM,59.0,27.9,31,30.08,10.0,NNW,12.7,-,N/A,,Clear,340,2013-04-21 01:58:00
8:58 PM,55.2,29.7,38,30.09,10.0,North,10.4,-,N/A,,Clear,350,2013-04-21 02:58:00
9:58 PM,48.7,30.2,49,30.11,10.0,WNW,4.6,-,N/A,,Clear,290,2013-04-21 03:58:00
10:58 PM,44.6,30.9,59,30.13,10.0,WNW,8.1,-,N/A,,Clear,300,2013-04-21 04:58:00
11:58 PM,39.7,28.8,65,30.14,10.0,SW,5.8,-,N/A,,Clear,230,2013-04-21 05:58:00